This is the latest recevied weather packets stored in our database for station/object AE5EW. If no packets are shown the sender has not sent any weather packets the latest 10 day(s).
| Time | Temp. | Humidity | Pressure | Rain* | Wind** | Luminosity | Snow |
|---|---|---|---|---|---|---|---|
| 1787713716 | 25.56° C | 86% | 1018.1 hPa | 0 mm | - | - | - |
| 1787713415 | 25.56° C | 87% | 1018.3 hPa | 0 mm | - | - | - |
| 1787713114 | 25.56° C | 87% | 1018.2 hPa | 0 mm | - | - | - |
| 1787712814 | 25.56° C | 87% | 1017.8 hPa | 0 mm | - | - | - |
| 1787712510 | 26.11° C | 87% | 1017.5 hPa | 0 mm | - | - | - |
| 1787712209 | 26.11° C | 87% | 1017.3 hPa | 0 mm | - | - | - |
| 1787711904 | 26.11° C | 86% | 1017.4 hPa | 0 mm | - | - | - |
| 1787711599 | 26.67° C | 85% | 1017.4 hPa | 0 mm | - | - | - |
| 1787711295 | 26.67° C | 86% | 1017.7 hPa | 0 mm | - | - | - |
| 1787710991 | 26.11° C | 87% | 1017.6 hPa | 0 mm | - | - | - |
| 1787710687 | 26.67° C | 87% | 1017.4 hPa | 0 mm | - | - | - |
| 1787710387 | 26.67° C | 87% | 1017.6 hPa | 0 mm | - | - | - |
| 1787710083 | 26.67° C | 88% | 1017.3 hPa | 0 mm | - | - | - |
| 1787709778 | 26.67° C | 88% | 1017.3 hPa | 0 mm | - | - | - |
| 1787709473 | 26.67° C | 89% | 1017.2 hPa | 0 mm | - | - | - |
| 1787709169 | 26.67° C | 89% | 1016.9 hPa | 0 mm | - | - | - |
| 1787708866 | 26.67° C | 88% | 1016.8 hPa | 0 mm | - | - | - |
| 1787708565 | 27.22° C | 88% | 1016.6 hPa | 0 mm | - | - | - |
| 1787708260 | 27.22° C | 87% | 1016.4 hPa | 0 mm | - | - | - |
| 1787707955 | 27.22° C | 86% | 1016.4 hPa | 0 mm | - | - | - |
| 1787707651 | 27.22° C | 87% | 1016.4 hPa | 0 mm | - | - | - |
| 1787707347 | 27.78° C | 87% | 1016.4 hPa | 0 mm | - | - | - |
| 1787707042 | 27.22° C | 86% | 1016.5 hPa | 0 mm | - | - | - |
| 1787706741 | 27.22° C | 87% | 1016.7 hPa | 0 mm | - | - | - |
| 1787706438 | 26.67° C | 87% | 1016.5 hPa | 0 mm | - | - | - |
* Rain latest hour (hover to see other rain measurements)
** Current wind speed in m/s (hover to see current wind gust speed)